STARLINK-5511, 57252

Orbit data source: Space-Track

STARLINK-5511, 57252 is a payload satellite owned by SpaceX/Seattle (US) in LEO that was launched on Fri, 07 Jul 2023 UTC via an FALCON 9 launch vehicle from the Air Force Western Test Range (AFWTR). Payload-class satellites include a variety of spacecraft equipped with specific instruments for various scientific and technological missions. These include communications satellites like Starlink; space stations such as the ISS; scientific satellites like the Hubble; Earth observation satellites from companies like Planet Labs, Umbra, and HawkEye 360; GPS; miniature CubeSats for education and research; and military/defense satellites.

Loading next visibility...
Identifier
57252, 2023-094AL
Orbit
LEO
Country
Flag of USUS
Related business
Manufacturer
SpaceX/Seattle
Mission
Operational Commercial Communications
Bus & Motor
STARLINK, Unknown motor
Mass
305 kg wet, ~290 kg dry
Launch date (UTC)
2023-07-07 (3 years ago)
Launch vehicle
FALCON 9
Launch site
Air Force Western Test Range (AFWTR)
Object type
Payload
Rocket body
Debris
Shape & HBR
Box + 1 Pan, 10.1 m
Radar Cross Section
11.087 m², Large (>1 m²)

Expand to show TLE details & history
Last TLE update: 8 hours ago

TLE from 8 hours ago
0 STARLINK-5511
1 57252U 23094AL  26167.74574330  .00001192  00000-0  52832-4 0  9991
2 57252  43.0060 180.1034 0001745 280.4746  79.5909 15.27583347162396
Epoch: 2026-06-16T17:53Z
TLE epoch observation values (Epoch: 2026-06-16T17:53:52.221Z)
Latitude
-0.00001°
Longitude
6.62244°
Altitude
482.599 km
Speed
7.626 km/s
True Right ascension
12h 00m 24s
True Declination
0° 00' 00"
Sunlit
Object was in daylight at epoch
Visualization orbit readout
Latitude
Unknown
Longitude
Unknown
Altitude
Unknown
Speed
Unknown
Apparent Right ascension
Unknown
Apparent Declination
Unknown
Sunlit
N/A
Visualization observer readout
Local Sidereal Time
12:07:10
Azimuth
Unknown
Elevation
Unknown
Doppler factor
Unknown
Orbital elements
Apogee altitude
486.181 km
Perigee altitude
483.786 km
Semi-major axis
6,863.12 km
Eccentricity
0.00017
Inclination
43.006°
RAAN
180.1034°
Arg. of periapsis
280.4746°
True anomaly
79.61057°
Mean anomaly
79.5909°
Eccentric anomaly
79.60073°
Mean motion
3.81734 °/min
Orbital period
94.31 mins
BSTAR
0.000052832
Loading maneuver chart data...
Computing Atmospheric mass density...
Loading historical data...
Loading historical data...
Loading historical data...
Loading historical data...
Loading historical data...
Loading historical data...
Loading historical data...

Documentation

Showing up to 5 results
|